Regional Weather Roundup
Issued by NWS Spokane, WA

Home | Current Version | Previous Version | Text Only | Print | Product List | Glossary On
Versions: 1 2 3 4 5 6 7 8 9 10 11 12 13 14 15 16 17 18 19 20 21 22 23 24 25 26 27 28 29 30 31 32 33 34 35 36 37 38 39 40 41 42 43 44 45 46 47 48 49 50
000
NZUS01 KOTX 030210
RWROTX
EASTERN WASHINGTON/NORTHERN IDAHO ROUNDUP
NATIONAL WEATHER SERVICE, SPOKANE WA
700 PM PDT TUE SEP 02 2014

Note: "fair" indicated few or no clouds below 12,000 feet with no
significant weather and/or obstructions to visibility.

...NORTHEAST WASHINGTON AND NORTHERN IDAHO PANHANDLE...

CITY           SKY/WX    TMP DP  RH WIND       PRES   REMARKS
SPOKANE INTL   PTCLDY    72  41  32 SW17      29.66F
SPOKANE DOWNTO PTCLDY    74  40  29 SW12      29.66F
COEUR D ALENE  MOCLDY    70  41  35 SW8       29.66F
DEER PARK      PTCLDY    66  40  38 S16       29.65F
SANDPOINT      PTCLDY    61  52  72 CALM      29.65F

...SOUTHEAST WASHINGTON AND SOUTHERN IDAHO PANHANDLE...

CITY           SKY/WX    TMP DP  RH WIND       PRES   REMARKS
WALLA WALLA    CLEAR     78  42  27 SW18G28   29.70F
PULLMAN/MOSCOW MOCLDY    71  39  31 W15G23    29.72F
LEWISTON       PTCLDY    79  34  19 NW21G28   29.64F
LOWELL           N/A     68  52  56 CALM      29.65R

...COLUMBIA BASIN...

CITY           SKY/WX    TMP DP  RH WIND       PRES   REMARKS
EPHRATA        MOCLDY    73  42  32 W24G31    29.65F
MOSES LAKE     PTCLDY    72  41  32 W26G32    29.65F
TRI CITIES     PTCLDY    81  50  33 W14G22    29.63F
HERMISTON      PTCLDY    73  48  41 W21G33    29.69R
PENDLETON      CLEAR     71  44  37 W32G38    29.72S

...EAST SLOPES CASCADES...

CITY           SKY/WX    TMP DP  RH WIND       PRES   REMARKS
THE DALLES     CLOUDY    70  51  51 W16G25    29.81S
YAKIMA         MOCLDY    70  45  40 W16       29.72S
ELLENSBURG     LGT RAIN  63  49  60 NW21      29.74F
WENATCHEE      PTCLDY    69  42  37 W20G28    29.69S
OMAK           CLOUDY    64  52  64 NE7       29.62F

...SOUTHERN BRITISH COLUMBIA...

CITY           SKY/WX    TMP DP  RH WIND       PRES   REMARKS
PENTICTON      CLOUDY    55  52  88 NW9       29.74F
CASTLEGAR      LGT RAIN  59  54  82 NE6       29.69F
CRANBROOK      MOCLDY    54  50  87 N3        29.73R

...WESTERN MONTANA...

CITY           SKY/WX    TMP DP  RH WIND       PRES   REMARKS
MISSOULA       PTCLDY    74  37  26 NW10      29.69F

...NEIGHBORING CITIES...

CITY           SKY/WX    TMP DP  RH WIND       PRES   REMARKS
SEATTLE        MOCLDY    64  53  67 SW20G26   29.82R
CALGARY        CLOUDY    55  41  58 N7        29.75R



USA.gov is the U.S. government's official web portal to all federal, state and local government web resources and services.